Tracking 19831 objects as of 23-Aug-2019
HD Live streaming from Space Station
objects crossing your sky now

SL-12 DEB

Track SL-12 DEB now!
10-day predictions


NORAD ID: 43686
Int'l Code: 2010-007AL
Perigee: 741.8 km
Apogee: 18,811.0 km
Inclination: 65.1 °
Period: 340.3 minutes
Semi major axis: 16147 km
RCS: Unknown
Launch date: March 1, 2010
Source: Commonwealth of Independent States (former USSR) (CIS)
Launch site: TYURATAM MISSILE AND SPACE COMPLEX (TTMTR)

Note: This is SATELLITE DEBRIS
aabbcc
Your satellite tracking list
Your tracking list is empty




NASA's NSSDC Master Catalog

Two Line Element Set (TLE):
1 43686U 10007AL  19233.51332367 +.00000007 +00000-0 +26468-3 0  9999
2 43686 065.0551 030.2005 5595081 037.6521 350.7067 04.23105585042409
Source of the keplerian elements: AFSPC